N1JFY Weather Reports


time (UTC)temp
C
wind
direction
speed
KPH
gust
KPH
rain 1hr
cm
rain 24hr
cm
rain mn
cm
humidity
%
barometer
mb
20260505100026 6 222 8.0 19.3 0.00 0.03 0.00 89 1005.1
20260505094526 5 207 4.8 19.3 0.00 0.03 0.00 89 1005.0
20260505093034 5 196 9.7 22.5 0.00 0.03 0.00 89 1005.0
20260505091525 5 200 3.2 17.7 0.00 0.03 0.00 90 1005.1
20260505090020 5 223 1.6 14.5 0.00 0.03 0.00 90 1005.3
20260505084520 6 216 3.2 14.5 0.00 0.03 0.00 90 1005.4
20260505083024 6 210 3.2 11.3 0.00 0.03 0.00 90 1005.4
20260505081517 5 219 1.6 11.3 0.00 0.03 0.00 93 1005.4
20260505080015 3 194 0.0 6.4 0.00 0.03 0.00 94 1005.5
20260505074515 3 276 0.0 0.0 0.00 0.03 0.00 91 1005.6
20260505073014 5 276 0.0 0.0 0.00 0.03 0.00 88 1005.6
20260505071511 5 209 0.0 8.0 0.00 0.03 0.00 92 1005.6
20260505070011 5 199 0.0 6.4 0.00 0.03 0.00 93 1005.7
20260505064508 5 225 0.0 0.0 0.00 0.03 0.00 93 1005.9
20260505063008 4 229 0.0 4.8 0.00 0.03 0.00 94 1006.0
20260505061509 3 215 0.0 0.0 0.00 0.03 0.00 93 1006.0
20260505060004 3 217 0.0 0.0 0.00 0.03 0.00 91 1006.0
20260505054502 3 219 0.0 0.0 0.00 0.03 0.00 90 1006.1
20260505053001 5 225 0.0 0.0 0.00 0.03 0.00 90 1005.9
20260505051614 5 227 0.0 6.4 0.00 0.03 0.00 92 1006.0
20260505041555 4 213 0.0 0.0 0.00 0.03 0.00 90 1005.9
20260505040049 4 214 0.0 0.0 0.00 0.03 0.00 88 1006.1
20260505034548 5 214 0.0 0.0 0.00 0.03 0.03 87 1006.0
20260505033048 5 215 0.0 0.0 0.00 0.03 0.03 86 1006.0
20260505031554 6 217 0.0 0.0 0.00 0.03 0.03 86 1006.1
20260505030047 6 210 0.0 0.0 0.00 0.03 0.03 85 1006.2
20260505024552 6 228 0.0 0.0 0.00 0.03 0.03 87 1006.2
20260505023046 5 187 0.0 0.0 0.00 0.03 0.03 87 1006.1
20260505021549 5 182 0.0 0.0 0.00 0.03 0.03 86 1006.0
20260505020043 6 182 0.0 0.0 0.00 0.03 0.03 84 1005.9
20260505014543 6 181 0.0 0.0 0.00 0.03 0.03 84 1005.9
20260505013042 6 193 0.0 0.0 0.00 0.03 0.03 83 1005.9
20260505011539 6 195 0.0 0.0 0.00 0.03 0.03 81 1005.7
20260505010039 7 194 0.0 0.0 0.00 0.03 0.03 81 1005.5
20260505004537 7 207 0.0 0.0 0.00 0.03 0.03 79 1005.5
20260505003036 7 215 1.6 11.3 0.00 0.03 0.03 78 1005.1
20260505001535 8 200 3.2 14.5 0.00 0.03 0.03 76 1004.9
20260505000036 8 223 4.8 17.7 0.00 0.03 0.03 75 1004.5
20260504234533 8 286 4.8 16.1 0.00 0.05 0.03 74 1004.4
20260504233029 8 259 8.0 17.7 0.00 0.05 0.03 74 1004.2
20260504231528 8 360 12.9 19.3 0.00 0.05 0.03 73 1003.8
20260504230028 8 249 12.9 25.7 0.00 0.05 0.03 72 1003.7
20260504224527 8 284 11.3 24.1 0.00 0.05 0.03 71 1003.7
20260504223027 8 232 11.3 35.4 0.00 0.05 0.03 71 1003.6
20260504221526 8 266 17.7 29.0 0.00 0.05 0.03 71 1003.4
20260504220026 8 267 9.7 20.9 0.00 0.05 0.03 73 1003.2
20260504214526 8 246 9.7 25.7 0.00 0.08 0.03 73 1003.2
20260504213025 8 235 12.9 24.1 0.00 0.08 0.03 72 1003.1
20260504211524 8 237 9.7 25.7 0.00 0.08 0.03 72 1003.1
20260504210032 8 246 16.1 27.4 0.00 0.08 0.03 73 1002.8
20260504204532 8 211 6.4 22.5 0.00 0.13 0.03 75 1002.7
20260504203034 8 269 12.9 20.9 0.00 0.13 0.03 73 1002.7
20260504201523 8 360 1.6 20.9 0.00 0.13 0.03 75 1002.6
20260504200022 8 268 11.3 24.1 0.00 0.13 0.03 76 1002.6
20260504194524 8 210 11.3 24.1 0.00 0.23 0.03 74 1002.6
20260504193022 8 267 16.1 27.4 0.03 0.23 0.03 74 1002.6
20260504191524 8 249 17.7 30.6 0.03 0.23 0.03 75 1002.5
20260504190019 8 228 4.8 14.5 0.03 0.23 0.03 79 1002.6
20260504184519 7 220 4.8 17.7 0.03 0.36 0.03 78 1002.8
20260504183020 8 242 12.9 20.9 0.00 0.33 0.00 73 1002.7
20260504181518 8 263 11.3 24.1 0.00 0.33 0.00 75 1002.9
20260504180017 8 207 11.3 27.4 0.00 0.33 0.00 73 1002.8
20260504174517 8 225 11.3 29.0 0.00 0.41 0.00 70 1002.8
20260504173016 10 245 9.7 29.0 0.00 0.41 0.00 64 1002.7
20260504171514 10 215 16.1 33.8 0.00 0.41 0.00 56 1002.4